Regional Weather Roundup
Issued by NWS

Home | Current Version | Previous Version | Graphics & Text | Print | Product List | Glossary On
Versions: 1 2 3 4 5 6 7 8 9 10 11 12 13 14 15 16 17 18 19 20 21 22 23 24 25 26 27 28 29 30 31 32 33 34 35 36 37 38 39 40 41 42 43 44 45 46 47 48 49 50
000
ASUS43 KMPX 280001
RWRMN
WEATHER ROUNDUP FOR MINNESOTA
NATIONAL WEATHER SERVICE TWIN CITIES/CHANHASSEN MN
700 PM CDT TUE JUN 27 2017


NOTE: "FAIR" INDICATES FEW OR NO CLOUDS BELOW 12,000 FEET WITH NO
SIGNIFICANT WEATHER AND/OR OBSTRUCTIONS TO VISIBILITY. N/A MEANS
CURRENT SKY AND/OR WEATHER CONDITIONS ARE NOT AVAILABLE.

MNZ060>063-068>070-280100-
   Twin Cities Metro

CITY           SKY/WX    TMP DP  RH WIND       PRES   REMARKS
TWIN CITIES    PTSUNNY   75  42  30 S12G22    29.86F
6HR MIN TEMP:  73; 6HR MAX TEMP:  77;

ST PAUL        FAIR      75  44  33 S14G23    29.85F
CRYSTAL        FAIR      75  42  30 S9G24     29.83F
BLAINE         MOSUNNY   75  43  31 S13G22    29.84F
LAKEVILLE      FAIR      72  45  37 S8G16     29.85F
EDEN PRAIRIE   FAIR      74  45  35 S12       29.84F
6HR MIN TEMP:  74; 6HR MAX TEMP:  77;

SOUTH ST PAUL  FAIR      75  42  29 S9G17     29.85F
LAKE ELMO      FAIR      73  45  35 S9        29.87S
$$
MNZ001>005-007-008-013>017-022>024-027-028-280100-
   Northwest Minnesota

CITY           SKY/WX    TMP DP  RH WIND       PRES   REMARKS
BEMIDJI        FAIR      73  44  34 S13G21    29.78R
HALLOCK        FAIR      75  43  31 S17G23    29.67R
ROSEAU         FAIR      75  48  38 S17       29.71S
WARROAD        FAIR      75  48  38 S10G17    29.73S
THIEF RVR FALL FAIR      73  43  33 S20G26    29.72F
CROOKSTON      FAIR      75  46  35 S18       29.70S
FOSSTON        FAIR      73  43  33 S18G25    29.74F
DETROIT LAKES  FAIR      70  45  40 SE18      29.74F THUNDER
MOORHEAD       FAIR      73  46  38 S20G29    29.69F THUNDER
PARK RAPIDS    FAIR      75  42  30 S17G23    29.78F
MAHNOMEN       FAIR      71  45  39 SE13G20   29.72F
$$
MNZ006-009>011-018-025>026-280100-
   North Central Minnesota

CITY           SKY/WX    TMP DP  RH WIND       PRES   REMARKS
BAUDETTE       FAIR      71  48  43 S8        29.75F
FLAG ISLAND    FAIR      70  55  60 S14       29.72F
INTL FALLS     FAIR      70  46  42 W7        29.77F
6HR MIN TEMP:  70; 6HR MAX TEMP:  75;

WASKISH        FAIR      73  48  40 SE8       29.77S
BIG FORK       FAIR      72  48  43 SW6       29.80S
LONGVILLE      FAIR      72  45  37 S13       29.81S
GRAND RAPIDS   FAIR      71  43  36 S13G18    29.83F
CRANE LAKE     FAIR      70  46  43 CALM      29.81F
ORR            FAIR      72  41  33 S6        29.78S
COOK           FAIR      72  45  37 S8        29.82F
WALKER         FAIR      72  45  38 S10G17    29.79S
$$
MNZ012-019>021-037-280100-
   Northeast Minnesota

CITY           SKY/WX    TMP DP  RH WIND       PRES   REMARKS
DULUTH         FAIR      71  45  39 S16       29.84F
6HR MIN TEMP:  70; 6HR MAX TEMP:  73;

ELY            FAIR      70  43  37 SW8       29.83S
HIBBING        FAIR      70  42  36 SW6       29.82F
EVELETH        FAIR      73  34  23 S10G16    29.84S
DULUTH HARBOR  FAIR      75  48  38 SW15      29.83S
TWO HARBORS    FAIR      73  54  49 S7        29.83S
SILVER BAY     FAIR      73  46  38 S9        29.83S
GRAND MARAIS     N/A     52  43  71 CALM      29.84F
G MARAIS ARPRT FAIR      64  41  42 S10G16    29.87S
$$
MNZ029>031-032-039>041-046>048-054>057-064-280100-
   West Central Minnesota

CITY           SKY/WX    TMP DP  RH WIND       PRES   REMARKS
FERGUS FALLS   TSTM      66  52  59 SE12      29.71S
WHEATON        FAIR      77  43  29 SE23G30   29.69F THUNDER
MORRIS         FAIR      75  48  38 S23G33    29.69S THUNDER
ALEXANDRIA     PTSUNNY   68  47  46 S15G25    29.73F
ELBOW LAKE     CLOUDY    68  49  50 SE15G22   29.73R THUNDER
WADENA         FAIR      72  45  37 SE14      29.77F THUNDER
GLENWOOD       TSTM      63  54  72 SE18G25   29.72F
APPLETON       FAIR      75  41  29 S14G23    29.72F THUNDER
BENSON         LGT RAIN  73  48  40 S14       29.76F
ORTONVILLE     FAIR      77  45  31 SE13G21   29.70F
MADISON        FAIR      81  45  28 SE17      29.73F
WILLMAR        FAIR      73  46  38 E3        29.86R
$$
MNZ033>034-036-042>043-049>051-058-059-280100-
   Central Minnesota

CITY           SKY/WX    TMP DP  RH WIND       PRES   REMARKS
ST CLOUD       FAIR      72  44  36 S9        29.82S
6HR MIN TEMP:  72; 6HR MAX TEMP:  77;

SAUK CENTRE    FAIR      70  45  40 SE13G18   29.78F THUNDER
PAYNESVILLE    FAIR      72  41  33 S9        29.84R THUNDER
AITKIN         FAIR      70  45  40 S10G20    29.81S
PINE RIVER     FAIR      73  48  40 S13       29.83F
BRAINERD       FAIR      73  43  33 S10G22    29.82S
STAPLES        FAIR      73  39  29 S16       29.78F THUNDER
LONG PRAIRIE   FAIR      70  45  40 E14G21    29.78F THUNDER
LITTLE FALLS   FAIR      73  39  29 S15       29.80F
BUFFALO        FAIR      73  42  32 S7        29.85S
MAPLE LAKE     FAIR      73  46  37 S5        29.85S
HUTCHINSON     FAIR      73  47  40 S7        29.85S
$$
MNZ037-044-045-052-053-280100-
   East Central Minnesota

CITY           SKY/WX    TMP DP  RH WIND       PRES   REMARKS
PRINCETON      FAIR      75  45  33 S10G20    29.84S
MORA           FAIR      72  41  33 S14       29.85F
CAMBRIDGE      FAIR      77  52  41 S14       29.83S
RUSH CITY      FAIR      73  41  31 S10G18    29.85F
MOOSE LAKE     FAIR      72  43  35 S9        29.82F
HINCKLEY       FAIR      72  45  37 S12G20    29.84F
CLOQUET        FAIR      72  39  30 S13       29.84F
MCGREGOR       FAIR      72  43  35 S9G21     29.84S
$$
MNZ071>073-080-081-089-090-097-098-280100-
   Southwest Minnesota

CITY           SKY/WX    TMP DP  RH WIND       PRES   REMARKS
MONTEVIDEO     FAIR      75  45  33 S12       29.78S THUNDER
GRANITE FALLS  FAIR      79  47  32 SE14      29.80S
CANBY          FAIR      79  46  30 SE9G23    29.74F
MARSHALL       FAIR      77  46  33 S20G25    29.74F
REDWOOD FALLS  FAIR      79  43  27 S21G26    29.80R
OLIVIA         FAIR      73  43  33 S10       29.81S
PIPESTONE      FAIR      77  52  41 S17G29    29.74F
WINDOM         FAIR      77  43  29 S17G26    29.81S
WORTHINGTON    FAIR      76  52  43 S20G26    29.80
JACKSON        FAIR      75  45  33 S16G28    29.83S
TRACY          FAIR      77  46  33 S16G23    29.78F
SLAYTON        FAIR      76  47  36 S20G26    29.80F
$$
MNZ065>067-074>077-082>085-091>093-280100-
   South Central Minnesota

CITY           SKY/WX    TMP DP  RH WIND       PRES   REMARKS
MANKATO        FAIR      74  44  34 S12G18    29.85S
NEW ULM        FAIR      75  43  31 S14       29.82R
ST JAMES       FAIR      77  45  31 S18       29.83S
FAIRMONT       FAIR      75  48  38 S18G25    29.83F
GLENCOE        FAIR      74  47  37 SE7       29.83F
FARIBAULT      FAIR      73  45  35 S14       29.86F
OWATONNA       FAIR      73  45  35 S13G20    29.87F
WASECA         FAIR      72  43  35 S13G23    29.87F
ALBERT LEA     FAIR      73  41  31 S13G20    29.88F
$$
MNZ078>079-086>088-094>096-280100-
   Southeast Minnesota

CITY           SKY/WX    TMP DP  RH WIND       PRES   REMARKS
ROCHESTER      FAIR      72  45  37 S15G22    29.90F
6HR MIN TEMP:  70; 6HR MAX TEMP:  75;

RED WING       FAIR      73  39  29 S8        29.86F
STANTON        FAIR      73  43  33 S9G17     29.85F
DODGE CENTER   FAIR      73  39  29 S18       29.89F
WINONA         FAIR      73  48  40 CALM      29.92F
AUSTIN         FAIR      72  43  35 S14       29.89F
PRESTON        FAIR      68  45  43 S12       29.93F
$$
ABBREVIATIONS USED IN REMARKS
   TC - TEMPERATURES IN CELSIUS
  WCI - WIND CHILL INDEX
   HX - HEAT INDEX
  VSB - VISIBILITY
$$




USA.gov is the U.S. government's official web portal to all federal, state and local government web resources and services.